FW6146 Weather Reports


time (UTC)temp
F
wind
direction
speed
knots
gust
knots
rain 1hr
in
rain 24hr
in
rain mn
in
humidity
%
barometer
mb
20260507201913 64 306 2.6 4.3 0.00 0.32 0.29 33 1004.3
20260507200930 64 262 0.9 2.6 0.00 0.32 0.29 34 1004.4
20260507195916 65 60 2.6 2.6 0.00 0.32 0.29 32 1004.4
20260507194935 64 352 1.7 2.6 0.00 0.32 0.29 32 1004.5
20260507193920 63 329 1.7 4.3 0.00 0.32 0.29 32 1004.6
20260507192906 64 300 1.7 2.6 0.00 0.32 0.29 31 1004.7
20260507191924 64 314 1.7 4.3 0.00 0.32 0.29 32 1004.9
20260507190908 63 298 3.5 6.1 0.00 0.32 0.29 34 1005.0
20260507185926 63 315 1.7 4.3 0.00 0.32 0.29 33 1005.0
20260507184912 63 293 2.6 5.2 0.00 0.32 0.29 33 1005.1
20260507183930 63 301 2.6 4.3 0.00 0.32 0.29 34 1005.1
20260507182915 63 323 0.9 2.6 0.00 0.32 0.29 37 1005.2
20260507181934 62 341 0.9 2.6 0.00 0.32 0.29 37 1005.4
20260507180919 63 70 1.7 2.6 0.00 0.32 0.29 38 1005.5
20260507180018 63 337 2.6 6.1 0.00 0.32 0.29 38 1005.6
20260507174944 63 308 0.9 5.2 0.00 0.32 0.29 37 1005.6
20260507173949 64 286 3.5 4.3 0.00 0.32 0.29 39 1005.5
20260507172927 64 318 0.9 4.3 0.00 0.32 0.29 40 1005.5
20260507171933 63 334 0.9 1.7 0.00 0.32 0.29 41 1005.8
20260507170931 62 307 1.7 4.3 0.00 0.32 0.29 41 1005.6
20260507165917 62 359 0.9 2.6 0.00 0.32 0.29 43 1005.8
20260507164955 62 10 1.7 4.3 0.00 0.32 0.29 47 1005.8
20260507163920 62 305 2.6 4.3 0.00 0.32 0.29 50 1005.9
20260507162937 61 293 1.7 5.2 0.00 0.32 0.29 51 1006.1
20260507161942 60 299 2.6 2.6 0.00 0.32 0.29 54 1006.2
20260507160959 60 305 1.7 5.2 0.00 0.32 0.29 54 1006.3
20260507155925 60 315 0.9 4.3 0.00 0.32 0.29 56 1006.2
20260507154943 59 271 2.6 4.3 0.00 0.32 0.29 60 1006.5
20260507153929 58 308 2.6 4.3 0.00 0.32 0.29 61 1006.6
20260507152913 58 235 0.9 4.3 0.00 0.32 0.29 62 1006.8
20260507151952 58 350 0.9 1.7 0.00 0.32 0.29 64 1006.8
20260507150918 58 319 0.9 2.6 0.00 0.32 0.29 63 1006.7
20260507145936 58 303 0.9 1.7 0.00 0.32 0.29 62 1006.9
20260507144920 56 350 0.9 0.9 0.00 0.32 0.29 67 1007.0
20260507143958 56 319 0.9 1.7 0.00 0.32 0.29 66 1006.8
20260507142924 56 45 0.9 2.6 0.00 0.32 0.29 71 1007.2
20260507141939 55 322 0.9 1.7 0.00 0.32 0.29 68 1007.2
20260507140924 54 319 0.9 1.7 0.01 0.32 0.29 78 1007.2
20260507135942 53 348 0.9 1.7 0.01 0.32 0.29 76 1007.4
20260507134928 52 234 0.0 0.9 0.01 0.32 0.29 80 1007.1
20260507133946 52 304 1.7 1.7 0.01 0.32 0.29 84 1007.4
20260507132930 51 330 0.0 1.7 0.02 0.32 0.29 90 1007.3
20260507132008 51 329 1.7 2.6 0.02 0.32 0.29 94 1007.2
20260507130931 50 301 0.9 1.7 0.02 0.31 0.28 96 1007.4
20260507130009 49 15 0.0 0.9 0.02 0.31 0.28 97 1007.2
20260507125014 50 276 0.9 2.6 0.03 0.31 0.28 97 1007.2
20260507124031 49 0.0 0.0 0.03 0.31 0.28 97 1007.4
20260507122936 49 336 0.0 0.9 0.03 0.30 0.27 97 1007.7
20260507121922 49 0.0 0.0 0.04 0.30 0.27 97 1007.8
20260507120941 49 0.0 0.0 0.03 0.29 0.26 97 1007.3
20260507115926 48 0.0 0.0 0.04 0.29 0.26 97 1007.3
20260507114945 48 0.0 0.0 0.04 0.28 0.25 97 1007.3
20260507113931 48 0.0 0.0 0.04 0.28 0.25 97 1007.3
20260507113010 48 0.0 0.0 0.04 0.27 0.24 97 1007.5
20260507111935 48 0.0 0.0 0.04 0.26 0.23 97 1007.0
20260507110953 48 0.0 0.0 0.04 0.26 0.23 96 1007.1
20260507105939 48 0.0 0.0 0.04 0.25 0.22 96 1006.9
20260507104956 48 0.0 0.0 0.03 0.24 0.21 96 1007.0
20260507104002 48 0.0 0.0 0.04 0.24 0.21 96 1006.9
20260507102927 48 0.0 0.0 0.03 0.23 0.20 96 1007.3
20260507101946 48 0.0 0.0 0.03 0.22 0.19 96 1007.4
20260507100952 48 0.0 0.0 0.03 0.22 0.19 96 1007.2
20260507095951 48 0.0 0.0 0.03 0.21 0.18 96 1007.0
20260507094937 48 0.0 0.0 0.04 0.21 0.18 95 1006.8
20260507093955 48 0.0 0.0 0.04 0.20 0.17 95 1006.8
20260507092942 48 0.0 0.0 0.06 0.20 0.17 95 1006.8
20260507092020 48 0.0 0.9 0.06 0.19 0.16 95 1006.6
20260507090946 48 317 0.0 0.9 0.08 0.19 0.16 95 1006.3
20260507085931 49 314 0.9 2.6 0.08 0.18 0.15 95 1006.4
20260507084949 49 333 0.0 0.9 0.09 0.17 0.14 94 1006.6
20260507083935 49 338 0.0 2.6 0.10 0.16 0.13 94 1006.5
20260507082953 50 0.0 1.7 0.10 0.14 0.11 94 1006.4
20260507081939 50 319 0.9 1.7 0.09 0.13 0.10 93 1006.3
20260507080957 51 0.0 0.9 0.07 0.11 0.08 92 1006.6
20260507075943 52 331 0.0 0.9 0.06 0.10 0.07 91 1006.4
20260507075002 52 0.0 0.9 0.04 0.08 0.05 88 1006.5
20260507073946 54 321 0.9 1.7 0.02 0.06 0.03 83 1006.5
20260507073005 55 343 0.9 1.7 0.00 0.04 0.01 83 1005.6
20260507071951 55 329 0.0 1.7 0.00 0.04 0.01 82 1005.4
20260507070937 55 320 0.9 1.7 0.00 0.04 0.01 83 1005.4
20260507065956 55 347 0.9 1.7 0.00 0.04 0.01 82 1005.2
20260507064940 55 330 0.9 1.7 0.00 0.04 0.01 83 1005.6
20260507063959 56 333 0.9 1.7 0.00 0.04 0.01 85 1005.6
20260507062943 56 320 0.9 0.9 0.00 0.04 0.01 86 1005.7
20260507062002 56 326 0.0 0.9 0.00 0.04 0.01 85 1005.3
20260507060947 56 346 0.9 1.7 0.00 0.04 0.01 86 1005.5
20260507060007 57 43 0.9 1.7 0.00 0.04 0.01 92 1005.8
20260507054951 57 303 0.9 1.7 0.00 0.04 0.01 93 1005.8
20260507053937 57 0.0 0.0 0.00 0.04 0.01 93 1005.9
20260507052955 58 329 0.0 0.9 0.00 0.04 0.01 93 1005.9
20260507051940 58 322 0.9 0.9 0.00 0.04 0.01 94 1005.8
20260507050957 58 0.0 0.0 0.00 0.04 0.01 94 1005.8
20260507045942 58 321 0.9 0.9 0.01 0.04 0.01 95 1005.9
20260507045041 59 312 0.9 1.7 0.01 0.04 0.01 95 1005.8
20260507043946 59 317 0.9 1.7 0.01 0.04 0.01 95 1005.8
20260507043005 59 327 0.0 0.9 0.01 0.04 0.01 95 1005.7
20260507041950 59 310 0.0 0.9 0.01 0.04 0.01 95 1005.7
20260507041027 59 314 0.0 0.9 0.01 0.04 0.01 94 1005.8
20260507035952 59 0.0 1.7 0.00 0.03 0.03 94 1005.9
20260507035031 58 262 2.6 4.3 0.00 0.03 0.03 93 1006.0
20260507033957 58 293 1.7 2.6 0.00 0.03 0.03 94 1006.0
20260507033035 58 301 0.9 1.7 0.00 0.03 0.03 94 1005.9
20260507032020 58 317 0.9 1.7 0.00 0.03 0.03 94 1005.8
20260507030946 58 305 1.7 5.2 0.00 0.03 0.03 94 1005.6
20260507030005 57 288 0.9 1.7 0.00 0.03 0.03 94 1005.6
20260507024950 57 282 0.9 2.6 0.00 0.03 0.03 94 1005.4
20260507024028 57 302 0.9 2.6 0.00 0.03 0.03 94 1005.6
20260507022953 57 304 1.7 2.6 0.00 0.03 0.03 94 1005.6
20260507022011 57 234 0.9 2.6 0.00 0.03 0.03 95 1005.7
20260507021016 57 168 1.7 4.3 0.00 0.03 0.03 95 1005.8
20260507020035 57 307 0.9 2.6 0.00 0.03 0.03 95 1005.6
20260507015000 57 308 0.9 1.7 0.00 0.03 0.03 95 1005.8
20260507014019 57 281 1.7 2.6 0.00 0.03 0.03 95 1005.9
20260507013005 57 309 0.9 2.6 0.00 0.03 0.03 95 1006.2
20260507011949 57 288 0.9 1.7 0.00 0.03 0.03 95 1006.2
20260507011007 57 296 1.7 4.3 0.00 0.03 0.03 95 1006.2
20260507005952 57 296 0.9 2.6 0.00 0.03 0.03 95 1006.2
20260507005010 57 283 0.9 4.3 0.00 0.03 0.03 94 1006.3
20260507003956 56 311 0.9 1.7 0.00 0.03 0.03 94 1006.2
20260507003014 56 295 0.9 2.6 0.00 0.03 0.03 94 1006.0
20260507002020 56 285 2.6 5.2 0.00 0.03 0.03 94 1005.9
20260507001020 56 324 0.0 1.7 0.00 0.03 0.03 94 1006.1
20260507000005 56 274 2.6 2.6 0.00 0.03 0.03 94 1005.9
20260506235023 56 271 1.7 6.1 0.00 0.03 0.03 94 1006.0
20260506234009 56 265 2.6 4.3 0.00 0.03 0.03 94 1005.7
20260506232955 56 259 1.7 6.1 0.00 0.03 0.03 94 1005.7
20260506232013 57 322 0.9 2.6 0.00 0.03 0.03 94 1005.9
20260506230958 57 275 0.9 4.3 0.00 0.03 0.03 94 1006.1
20260506230015 57 307 1.7 2.6 0.00 0.03 0.03 94 1005.9
20260506225000 57 295 1.7 2.6 0.01 0.03 0.03 94 1005.9
20260506224019 57 275 1.7 6.1 0.01 0.03 0.03 95 1005.9
20260506223005 57 307 2.6 5.2 0.01 0.03 0.03 94 1006.0
20260506222024 57 307 2.6 2.6 0.01 0.03 0.03 94 1006.2
20260506221010 58 310 0.9 2.6 0.01 0.03 0.03 93 1006.1
20260506220028 58 283 1.7 6.1 0.02 0.03 0.03 93 1006.3
20260506215014 59 287 1.7 4.3 0.02 0.02 0.02 92 1006.4
20260506214019 59 282 1.7 5.2 0.02 0.02 0.02 92 1006.5
20260506213018 59 295 1.7 4.3 0.02 0.02 0.02 92 1006.5
20260506212024 59 305 2.6 6.1 0.02 0.02 0.02 92 1006.7
20260506211042 59 302 0.9 4.3 0.02 0.02 0.02 92 1006.6
20260506210007 59 305 0.9 1.7 0.01 0.01 0.01 91 1006.6
20260506205026 60 294 1.7 4.3 0.00 0.00 0.00 89 1006.6
20260506204012 60 283 2.6 5.2 0.00 0.00 0.00 89 1006.9
20260506202923 61 291 1.7 6.1 0.00 0.00 0.00 88 1006.7